Weather History for KIPT - April, 2014

Change the Weather History Date:

Friday, April 18, 2014

  Actual Average Record
Temperature  
Mean Temperature 44 °F 51 °F  
Max Temperature 54 °F 62 °F 92 °F (1976)
Min Temperature 34 °F 40 °F 24 °F (1948)
Degree Days  
Heating Degree Days 21 14  
Month to date heating degree days 309 312  
Since 1 July heating degree days 6141 5608  
Cooling Degree Days 0 0  
Month to date cooling degree days 9 0  
Year to date cooling degree days 9 0  
Moisture  
Dew Point 29 °F    
Average Humidity 58    
Maximum Humidity 75    
Minimum Humidity 41    
Precipitation  
Precipitation 0.00 in 0.10 in 0.87 in (1910)
Month to date precipitation 1.92 1.98  
Year to date precipitation 8.61 9.99  
Snow  
Snow 0.00 in 0.10 in 0.50 in (1953)
Month to date snowfall T 1.0  
Since 1 July snowfall 45.9 35.9  
Snow Depth 0.00 in    
Sea Level Pressure  
Sea Level Pressure 30.39 in    
Wind  
Wind Speed 6 mph (East)    
Max Wind Speed 14 mph    
Max Gust Speed 19 mph    
Visibility 10 miles    
Events      
T = Trace of Precipitation, MM = Missing Value Source: NWS Daily Summary

Daily Weather History Graph

Daily Weather History Graph

Search for Another Location

Airport or City:

Trip Planner

Search our weather history database for the weather conditions in past years. The results will help you decide how hot, cold, wet, or windy it might be!

Date:

Astronomy

Apr. 18, 2014 Rise Set
Actual Time 6:23 AM EDT 7:51 PM EDT
Civil Twilight 5:54 AM EDT 8:19 PM EDT
Nautical Twilight 5:20 AM EDT 8:54 PM EDT
Astronomical Twilight 4:43 AM EDT 9:31 PM EDT
Moon 11:35 PM EDT (4/18) 8:42 AM EDT (4/18)
Length of Visible Light 14h 25m
Length of Day
13h 27m
Waning Gibbous, 87% of the Moon is Illuminated
Apr 18
Waning Gibbous
Apr 22
Last Quarter
Apr 29
New
May 6
First Quarter
May 14
Full

Hourly Weather History & Observations

Time (EDT) Temp. Windchill Dew Point Humidity Pressure Visibility Wind Dir Wind Speed Gust Speed Precip Events Conditions
12:54 AM 41.0 °F 35.2 °F 27.0 °F 57% 30.57 in 10.0 mi East 9.2 mph - N/A   Mostly Cloudy
1:54 AM 39.9 °F 33.9 °F 27.0 °F 60% 30.53 in 10.0 mi East 9.2 mph - N/A   Partly Cloudy
2:54 AM 39.0 °F 35.7 °F 26.1 °F 60% 30.48 in 10.0 mi Variable 4.6 mph - N/A   Clear
3:54 AM 37.0 °F - 26.1 °F 65% 30.46 in 10.0 mi North - - N/A   Clear
4:54 AM 37.0 °F 34.5 °F 26.1 °F 65% 30.47 in 10.0 mi Variable 3.5 mph - N/A   Clear
5:47 AM 36.0 °F 29.0 °F 26.1 °F 67% 30.46 in 10.0 mi ENE 9.2 mph - N/A   Mostly Cloudy
5:54 AM 36.0 °F 28.5 °F 26.1 °F 67% 30.47 in 10.0 mi ENE 10.4 mph - N/A   Scattered Clouds
6:54 AM 36.0 °F 33.3 °F 26.1 °F 67% 30.48 in 10.0 mi NNE 3.5 mph - N/A   Clear
7:54 AM 36.0 °F 33.3 °F 28.0 °F 73% 30.50 in 10.0 mi East 3.5 mph - N/A   Clear
8:54 AM 37.9 °F - 28.0 °F 68% 30.49 in 10.0 mi Calm Calm - N/A   Clear
9:54 AM 39.0 °F 35.7 °F 28.9 °F 67% 30.45 in 10.0 mi Variable 4.6 mph - N/A   Clear
10:54 AM 42.1 °F 39.2 °F 28.9 °F 60% 30.44 in 10.0 mi Variable 4.6 mph - N/A   Clear
11:54 AM 44.1 °F 40.8 °F 30.0 °F 58% 30.44 in 10.0 mi SSW 5.8 mph - N/A   Clear
12:54 PM 48.9 °F - 30.9 °F 50% 30.39 in 10.0 mi ESE 9.2 mph 17.3 mph N/A   Clear
1:54 PM 50.0 °F - 30.9 °F 48% 30.38 in 10.0 mi Variable 4.6 mph - N/A   Clear
2:54 PM 51.1 °F - 30.9 °F 46% 30.34 in 10.0 mi ESE 8.1 mph - N/A   Clear
3:54 PM 53.1 °F - 30.9 °F 43% 30.31 in 10.0 mi Variable 6.9 mph - N/A   Clear
4:54 PM 54.0 °F - 30.9 °F 41% 30.28 in 10.0 mi ESE 9.2 mph 16.1 mph N/A   Clear
5:54 PM 53.1 °F - 32.0 °F 45% 30.27 in 10.0 mi SSE 6.9 mph - N/A   Clear
6:54 PM 53.1 °F - 32.0 °F 45% 30.25 in 10.0 mi SSE 6.9 mph - N/A   Clear
7:54 PM 51.1 °F - 32.0 °F 48% 30.24 in 10.0 mi Variable 6.9 mph - N/A   Clear
8:54 PM 50.0 °F - 32.0 °F 50% 30.25 in 10.0 mi Variable 4.6 mph - N/A   Clear
9:54 PM 48.9 °F - 32.0 °F 52% 30.25 in 10.0 mi East 3.5 mph - N/A   Clear
10:54 PM 46.9 °F - 33.1 °F 59% 30.27 in 10.0 mi NNW 5.8 mph - N/A   Clear
11:54 PM 44.1 °F - 33.1 °F 65% 30.25 in 10.0 mi Calm Calm - N/A   Clear